, LA

(GMT )
High Island 179A

Weather History for KXIH - February, 2013

Change the Weather History Date:

Tuesday, February 19, 2013

  Actual Average Record
Temperature  
Mean Temperature 66 °F -  
Max Temperature 66 °F - - ()
Min Temperature 66 °F - - ()
Cooling Degree Days 1    
Growing Degree Days 16 (Base 50)    
Moisture  
Dew Point 63 °F    
Average Humidity 88    
Maximum Humidity 88    
Minimum Humidity 88    
Precipitation  
Precipitation 0.00 in - - ()
Sea Level Pressure  
Sea Level Pressure 30.14 in    
Wind  
Wind Speed 23 mph (ENE)    
Max Wind Speed 33 mph    
Max Gust Speed 41 mph    
Visibility 10 miles    
Events      
Averages and records for this station are not official NWS values.
T = Trace of Precipitation, MM = Missing Value Source: NWS Daily Summary

Daily Weather History Graph

Daily Weather History Graph

Search for Another Location

Airport or City:

Trip Planner

Search our weather history database for the weather conditions in past years. The results will help you decide how hot, cold, wet, or windy it might be!

Date:

Astronomy

Feb. 19, 2013 Rise Set
Actual Time 6:53 AM CST 6:10 PM CST
Civil Twilight 6:29 AM CST 6:35 PM CST
Nautical Twilight 6:01 AM CST 7:02 PM CST
Astronomical Twilight 5:33 AM CST 7:30 PM CST
Moon 12:57 PM CST (2/19) 2:11 AM CST (2/19)
Length of Visible Light 12h 06m
Length of Day
11h 17m
Waxing Gibbous, 67% of the Moon is Illuminated
Feb 19
Waxing Gibbous
Feb 25
Full
Mar 4
Last Quarter
Mar 11
New
Mar 19
First Quarter

Hourly Weather History & Observations

Time (CST) Temp. Dew Point Humidity Pressure Visibility Wind Dir Wind Speed Gust Speed Precip Events Conditions
12:35 AM 66.2 °F 62.6 °F 88% 30.05 in 5.0 mi North 21.9 mph 36.8 mph N/A   Haze
12:55 AM 66.2 °F 62.6 °F 88% 30.05 in 9.0 mi NNE 23.0 mph 31.1 mph N/A   Overcast
1:15 AM 66.2 °F 62.6 °F 88% 30.05 in 10.0 mi NNE 20.7 mph 29.9 mph N/A   Overcast
1:35 AM 66.2 °F 62.6 °F 88% 30.07 in 10.0 mi NNE 17.3 mph - N/A   Overcast
1:55 AM 66.2 °F 62.6 °F 88% 30.08 in 9.0 mi NNE 13.8 mph - N/A   Overcast
2:15 AM 66.2 °F 62.6 °F 88% 30.07 in 9.0 mi NNE 15.0 mph 21.9 mph N/A   Overcast
2:35 AM 66.2 °F 62.6 °F 88% 30.08 in 10.0 mi NNE 15.0 mph - N/A   Overcast
2:55 AM 66.2 °F 62.6 °F 88% 30.07 in 10.0 mi North 18.4 mph 24.2 mph N/A   Overcast
3:15 AM 66.2 °F 62.6 °F 88% 30.06 in 10.0 mi NNE 24.2 mph - N/A   Overcast
3:35 AM 66.2 °F 62.6 °F 88% 30.05 in 10.0 mi NNE 31.1 mph - N/A   Overcast
4:15 AM 66.2 °F 62.6 °F 88% 30.05 in 10.0 mi NNE 33.4 mph 41.4 mph N/A   Mostly Cloudy
4:35 AM 66.2 °F 62.6 °F 88% 30.06 in 10.0 mi NNE 32.2 mph 39.1 mph N/A   Scattered Clouds
4:55 AM 66.2 °F 62.6 °F 88% 30.07 in 10.0 mi NNE 32.2 mph - N/A   Scattered Clouds
5:15 AM 66.2 °F 62.6 °F 88% 30.08 in 10.0 mi NE 32.2 mph - N/A   Mostly Cloudy
5:35 AM 66.2 °F 62.6 °F 88% 30.09 in 10.0 mi NE 33.4 mph - N/A   Scattered Clouds
5:55 AM 66.2 °F 62.6 °F 88% 30.10 in 10.0 mi NE 33.4 mph 40.3 mph N/A   Scattered Clouds
6:55 AM 66.2 °F 62.6 °F 88% 30.13 in 10.0 mi NE 32.2 mph - N/A   Clear
7:15 AM 66.2 °F 62.6 °F 88% 30.15 in 10.0 mi NE 29.9 mph - N/A   Clear
7:35 AM 66.2 °F 62.6 °F 88% 30.16 in 10.0 mi ENE 25.3 mph - N/A   Clear
7:55 AM 66.2 °F 62.6 °F 88% 30.18 in 10.0 mi ENE 27.6 mph - N/A   Clear
8:15 AM 66.2 °F 62.6 °F 88% 30.19 in 10.0 mi ENE 24.2 mph - N/A   Clear
8:35 AM 66.2 °F 62.6 °F 88% 30.20 in 10.0 mi ENE 25.3 mph - N/A   Clear
8:55 AM 66.2 °F 62.6 °F 88% 30.20 in 10.0 mi ENE 23.0 mph - N/A   Clear
9:15 AM 66.2 °F 62.6 °F 88% 30.20 in 10.0 mi ENE 26.5 mph - N/A   Clear
9:35 AM 66.2 °F 62.6 °F 88% 30.21 in 10.0 mi ENE 24.2 mph - N/A   Clear
9:55 AM 66.2 °F 62.6 °F 88% 30.21 in 10.0 mi ENE 25.3 mph - N/A   Clear
10:15 AM 66.2 °F 62.6 °F 88% 30.21 in 10.0 mi ENE 25.3 mph - N/A   Clear
10:35 AM 66.2 °F 62.6 °F 88% 30.21 in 10.0 mi ENE 24.2 mph - N/A   Clear
10:55 AM 66.2 °F 62.6 °F 88% 30.21 in 10.0 mi East 24.2 mph - N/A   Clear
11:15 AM 66.2 °F 62.6 °F 88% 30.21 in 10.0 mi East 24.2 mph - N/A   Clear
11:35 AM 66.2 °F 62.6 °F 88% 30.21 in 10.0 mi ENE 20.7 mph - N/A   Clear
12:15 PM 66.2 °F 62.6 °F 88% 30.20 in 10.0 mi ENE 20.7 mph - N/A   Clear
12:35 PM 66.2 °F 62.6 °F 88% 30.21 in 10.0 mi ENE 18.4 mph - N/A   Clear
12:55 PM 66.2 °F 62.6 °F 88% 30.21 in 10.0 mi East 17.3 mph - N/A   Clear
1:15 PM 66.2 °F 62.6 °F 88% 30.21 in 10.0 mi East 17.3 mph - N/A   Clear
1:35 PM 66.2 °F 62.6 °F 88% 30.20 in 10.0 mi East 17.3 mph - N/A   Clear
1:55 PM 66.2 °F 62.6 °F 88% 30.19 in 10.0 mi East 16.1 mph - N/A   Clear
2:15 PM 66.2 °F 62.6 °F 88% 30.18 in 10.0 mi East 16.1 mph - N/A   Clear
2:35 PM 66.2 °F 62.6 °F 88% 30.18 in 10.0 mi East 16.1 mph - N/A   Clear
2:55 PM 66.2 °F 62.6 °F 88% 30.18 in 10.0 mi East 15.0 mph - N/A   Clear
3:15 PM 66.2 °F 62.6 °F 88% 30.17 in 10.0 mi East 13.8 mph - N/A   Clear
3:35 PM 66.2 °F 62.6 °F 88% 30.16 in 10.0 mi East 16.1 mph - N/A   Clear
3:55 PM 66.2 °F 62.6 °F 88% 30.17 in 10.0 mi East 13.8 mph - N/A   Clear
4:15 PM 66.2 °F 62.6 °F 88% 30.15 in 10.0 mi East 15.0 mph - N/A   Clear
4:35 PM 66.2 °F 62.6 °F 88% 30.15 in 10.0 mi East 18.4 mph - N/A   Clear
4:55 PM 66.2 °F 62.6 °F 88% 30.13 in 10.0 mi East 20.7 mph - N/A   Clear
5:15 PM 66.2 °F 62.6 °F 88% 30.13 in 10.0 mi East 20.7 mph - N/A   Clear
6:35 PM 66.2 °F 62.6 °F 88% 30.13 in 10.0 mi East 24.2 mph - N/A   Clear
6:55 PM 66.2 °F 62.6 °F 88% 30.13 in 10.0 mi East 24.2 mph - N/A   Clear
7:15 PM 66.2 °F 62.6 °F 88% 30.14 in 10.0 mi East 26.5 mph - N/A   Clear
7:35 PM 66.2 °F 62.6 °F 88% 30.15 in 10.0 mi East 24.2 mph - N/A   Clear
8:15 PM 66.2 °F 62.6 °F 88% 30.13 in 10.0 mi East 26.5 mph - N/A   Clear
8:35 PM 66.2 °F 62.6 °F 88% 30.14 in 10.0 mi East 26.5 mph - N/A   Clear
8:55 PM 66.2 °F 62.6 °F 88% 30.14 in 10.0 mi East 25.3 mph - N/A   Clear
9:15 PM 66.2 °F 62.6 °F 88% 30.14 in 10.0 mi East 25.3 mph - N/A   Clear
9:35 PM 66.2 °F 62.6 °F 88% 30.14 in 10.0 mi East 25.3 mph - N/A   Clear
9:55 PM 66.2 °F 62.6 °F 88% 30.15 in 10.0 mi East 24.2 mph - N/A   Clear
10:15 PM 66.2 °F 62.6 °F 88% 30.14 in 10.0 mi East 26.5 mph - N/A   Clear
10:35 PM 66.2 °F 62.6 °F 88% 30.14 in 10.0 mi East 26.5 mph - N/A   Clear
10:55 PM 66.2 °F 62.6 °F 88% 30.14 in 10.0 mi East 25.3 mph - N/A   Clear
11:15 PM 66.2 °F 62.6 °F 88% 30.13 in 10.0 mi East 27.6 mph - N/A   Unknown
11:35 PM 66.2 °F 62.6 °F 88% 30.13 in 10.0 mi ESE 24.2 mph - N/A   Unknown
11:55 PM 66.2 °F 62.6 °F 88% 30.12 in 10.0 mi East 24.2 mph - N/A   Unknown